TimeMDT,TemperatureF,Dew PointF,Humidity,Sea Level PressureIn,VisibilityMPH,Wind Direction,Wind SpeedMPH,Gust SpeedMPH,PrecipitationIn,Events,Conditions,WindDirDegrees,DateUTC
12:53 AM,44.1,39.0,82,29.48,10.0,West,23.0,-,0.00,Rain,Light Rain,280,2011-11-05 06:53:00
1:53 AM,43.0,39.9,89,29.47,8.0,West,8.1,-,0.03,Rain,Rain,270,2011-11-05 07:53:00
2:53 AM,42.8,41.0,93,29.53,10.0,ENE,4.6,-,N/A,Rain,Light Rain,70,2011-11-05 08:53:00
3:18 AM,42.8,41.0,93,29.53,10.0,NW,9.2,-,N/A,Rain,Light Rain,320,2011-11-05 09:18:00
3:53 AM,42.1,41.0,96,29.43,5.0,NNW,9.2,-,0.03,Rain,Rain,340,2011-11-05 09:53:00
4:04 AM,42.8,41.0,93,29.51,5.0,North,9.2,-,0.03,Rain,Rain,350,2011-11-05 10:04:00
4:13 AM,42.8,41.0,93,29.51,5.0,North,6.9,-,0.04,Rain,Rain,360,2011-11-05 10:13:00
4:53 AM,42.1,41.0,96,29.39,8.0,East,8.1,-,0.11,Rain,Light Rain,90,2011-11-05 10:53:00
5:53 AM,42.8,39.2,87,29.46,10.0,East,5.8,-,N/A,Rain,Light Rain,80,2011-11-05 11:53:00
6:53 AM,42.1,41.0,96,29.37,10.0,Calm,Calm,-,0.01,Rain,Light Rain,0,2011-11-05 12:53:00
7:53 AM,42.1,39.9,92,29.38,10.0,ESE,9.2,-,0.01,Rain,Light Rain,120,2011-11-05 13:53:00
8:53 AM,42.1,39.9,92,29.39,6.0,SE,3.5,-,0.04,Rain,Light Rain,140,2011-11-05 14:53:00
9:29 AM,42.8,39.2,87,29.47,10.0,South,8.1,-,N/A,Rain,Light Rain,180,2011-11-05 15:29:00
9:38 AM,41.0,39.2,93,29.47,5.0,South,11.5,-,0.05,Rain,Light Rain,170,2011-11-05 15:38:00
9:53 AM,42.1,39.0,89,29.39,6.0,South,9.2,-,0.07,Rain,Light Rain,180,2011-11-05 15:53:00
10:24 AM,39.2,37.4,93,29.50,10.0,NW,19.6,-,0.05,Rain,Light Rain,310,2011-11-05 16:24:00
10:42 AM,39.2,37.4,93,29.51,10.0,NW,16.1,-,0.05,,Overcast,310,2011-11-05 16:42:00
10:53 AM,41.0,37.9,89,29.45,10.0,WNW,13.8,-,0.05,,Overcast,300,2011-11-05 16:53:00
11:53 AM,46.0,37.0,71,29.50,10.0,WNW,15.0,20.7,N/A,,Mostly Cloudy,300,2011-11-05 17:53:00
12:53 PM,45.0,30.0,56,29.54,10.0,West,16.1,-,N/A,,Overcast,280,2011-11-05 18:53:00
1:53 PM,44.6,28.4,53,29.61,10.0,WNW,17.3,-,N/A,,Overcast,290,2011-11-05 19:53:00
2:53 PM,44.1,26.1,49,29.62,10.0,WNW,16.1,-,N/A,,Overcast,300,2011-11-05 20:53:00
3:53 PM,44.1,21.9,42,29.66,10.0,WNW,18.4,-,N/A,,Overcast,290,2011-11-05 21:53:00
4:53 PM,43.0,19.9,40,29.71,10.0,WNW,17.3,21.9,N/A,,Clear,290,2011-11-05 22:53:00
5:53 PM,39.9,19.0,43,29.75,10.0,West,16.1,-,N/A,,Clear,270,2011-11-05 23:53:00
6:53 PM,36.0,24.1,62,29.81,10.0,West,6.9,-,N/A,,Scattered Clouds,270,2011-11-06 00:53:00
7:53 PM,36.0,21.0,55,29.84,10.0,West,4.6,-,N/A,,Mostly Cloudy,260,2011-11-06 01:53:00
8:53 PM,35.1,19.9,54,29.86,10.0,WNW,8.1,-,N/A,,Scattered Clouds,290,2011-11-06 02:53:00
9:53 PM,34.0,23.0,64,29.89,10.0,West,8.1,-,N/A,,Overcast,270,2011-11-06 03:53:00
10:53 PM,35.1,21.0,57,29.90,10.0,West,8.1,-,N/A,,Overcast,280,2011-11-06 04:53:00
11:53 PM,35.1,21.0,57,29.88,10.0,West,5.8,-,N/A,,Overcast,280,2011-11-06 05:53:00